STARLINK-32304, 60738

Orbit data source: Space-Track

STARLINK-32304, 60738 is a payload satellite owned by SpaceX/Seattle (US) in LEO that was launched on Wed, 28 Aug 2024 UTC via an FALCON 9 launch vehicle from the Air Force Eastern Test Range (AFETR). Payload-class satellites include a variety of spacecraft equipped with specific instruments for various scientific and technological missions. These include communications satellites like Starlink; space stations such as the ISS; scientific satellites like the Hubble; Earth observation satellites from companies like Planet Labs, Umbra, and HawkEye 360; GPS; miniature CubeSats for education and research; and military/defense satellites.

Loading next visibility...
Identifier
60738, 2024-152U
Orbit
LEO
Country
Flag of USUS
Related business
Manufacturer
SpaceX/Seattle
Mission
Operational Commercial Communications
Bus & Motor
STARLINK V2M, Unknown motor
Mass
730 kg wet, ~700 kg dry
Launch date (UTC)
2024-08-28 (2 years ago)
Launch vehicle
FALCON 9
Launch site
Air Force Eastern Test Range (AFETR)
Object type
Payload
Rocket body
Debris
Shape & HBR
Box + 2 Pan, 17.7 m
Radar Cross Section
33.884 m², Large (>1 m²)

Expand to show TLE details & history
Last TLE update: 6 days ago

TLE from 6 days ago
0 STARLINK-32304
1 60738U 24152U   26154.48594520  .00000836  00000-0  40342-4 0  9997
2 60738  53.1597 230.1273 0001322  62.7943 297.3192 15.30199314 99987
Epoch: 2026-06-03T11:39Z
TLE epoch observation values (Epoch: 2026-06-03T11:39:45.665Z)
Latitude
-0.00004°
Longitude
163.24312°
Altitude
475.701 km
Speed
7.629 km/s
True Right ascension
15h 20m 30s
True Declination
0° 00' 00"
Sunlit
Object was in full shadow at epoch
Visualization orbit readout
Latitude
Unknown
Longitude
Unknown
Altitude
Unknown
Speed
Unknown
Apparent Right ascension
Unknown
Apparent Declination
Unknown
Sunlit
N/A
Visualization observer readout
Local Sidereal Time
18:52:40
Azimuth
Unknown
Elevation
Unknown
Doppler factor
Unknown
Orbital elements
Apogee altitude
476.38 km
Perigee altitude
474.568 km
Semi-major axis
6,853.611 km
Eccentricity
0.00013
Inclination
53.1597°
RAAN
230.1273°
Arg. of periapsis
62.7943°
True anomaly
297.30574°
Mean anomaly
297.3192°
Eccentric anomaly
297.31247°
Mean motion
3.82529 °/min
Orbital period
94.11 mins
BSTAR
0.000040342
Loading maneuver chart data...
Computing Atmospheric mass density...
Loading historical data...
Loading historical data...
Loading historical data...
Loading historical data...
Loading historical data...
Loading historical data...
Loading historical data...

Documentation

Showing up to 5 results
|